Station 46274 - Leucadia Nearshore, CA (262) Image indicating link to RSS feed of recent meteorological observations for station 46274


Conditions at 46274 as of
(5:26 am PDT)
1226 GMT on 06/21/2024:
     

Click on the graph icon in the table below to see a time series plot of the last five days of that observation.

5-day plot - Wave Height Wave Height (WVHT): 2.6 ft
5-day plot - Dominant Wave Period Dominant Wave Period (DPD): 7 sec
5-day plot - Average Wave Period Average Period (APD): 5.7 sec
5-day plot - Mean Wave Direction Mean Wave Direction (MWD): W ( 275 deg true )
5-day plot - Water Temperature Water Temperature (WTMP): 68.2 °F
Previous observations
TIME
(PDT)
5-day plot - Wind Direction
WDIR
 
5-day plot - Wind Speed
WSPD
kts
5-day plot - Wind Gust
GST
kts
5-day plot - Wave Height
WVHT
ft
5-day plot - Dominant Wave Period
DPD
sec
5-day plot - Average Wave Period
APD
sec
5-day plot - Mean Wave Direction
MWD
 
5-day plot - Atmospheric Pressure
PRES
in
5-day plot - Pressure Tendency
PTDY
in
5-day plot - Air Temperature
ATMP
°F
5-day plot - Water Temperature
WTMP
°F
5-day plot - Dew Point
DEWP
°F
5-day plot - Salinity
SAL
psu
5-day plot - Visibility
VIS
nmi
5-day plot - Tide (above MLLW)
TIDE
ft
2024-06-21 04:56 am--- 2.6 75.5 W--- 68.2----
2024-06-21 04:26 am--- 3.0 75.6 W--- 68.2----
2024-06-21 03:56 am--- 2.6 75.4 W--- 67.6----
2024-06-21 03:26 am--- 3.0 75.5 W--- 66.7----
2024-06-21 02:56 am--- 3.0 55.5 W--- 67.8----
2024-06-21 02:26 am--- 3.0 75.4 W--- 68.2----
2024-06-21 01:56 am--- 3.0 65.4 W--- 68.4----
2024-06-21 01:26 am--- 3.0 55.2 W--- 68.4----
2024-06-21 12:56 am--- 3.0 75.3 W--- 68.4----
2024-06-21 12:26 am--- 3.0 135.2 SW--- 68.7----
2024-06-20 11:56 pm--- 2.6 55.2 W--- 68.7----
2024-06-20 11:26 pm--- 2.6 155.2 SW--- 68.7----
2024-06-20 10:56 pm--- 2.6 135.3 SW--- 68.9----
2024-06-20 10:26 pm--- 2.6 135.3 SW--- 68.7----
2024-06-20 09:56 pm--- 2.6 135.3 SW--- 68.7----
2024-06-20 09:26 pm--- 2.3 134.9 SW--- 68.5----
2024-06-20 08:56 pm--- 2.6 155.1 SW--- 68.4----
2024-06-20 08:26 pm--- 2.6 135.5SSW--- 68.7----
2024-06-20 07:56 pm--- 2.3 155.4 SW--- 68.9----
2024-06-20 07:26 pm--- 2.6 135.5 SW--- 68.9----
2024-06-20 06:56 pm--- 2.3 155.1 SW--- 69.1----
2024-06-20 06:26 pm--- 2.6 155.4SSW--- 69.1----
2024-06-20 05:56 pm--- 2.6 155.4 SW--- 69.1----
2024-06-20 05:26 pm--- 2.3 155.3 SW--- 69.1----
2024-06-20 04:56 pm--- 2.6 75.4 W--- 68.9----
2024-06-20 04:26 pm--- 2.3 135.5 SW--- 68.9----
2024-06-20 03:56 pm--- 2.3 155.6 SW--- 68.9----
2024-06-20 03:26 pm--- 2.3 135.4 SW--- 68.9----
2024-06-20 02:56 pm--- 2.3 155.6 SW--- 68.7----
2024-06-20 02:26 pm--- 2.3 135.7 SW--- 68.7----
2024-06-20 01:56 pm--- 2.3 135.7 SW--- 68.4----
2024-06-20 01:26 pm--- 2.3 136.0 SW--- 68.5----
2024-06-20 12:56 pm--- 2.3 156.0 SW--- 68.4----
2024-06-20 12:26 pm--- 2.6 155.8 SW--- 68.0----
2024-06-20 11:56 am--- 2.6 136.2 SW--- 67.8----
2024-06-20 11:26 am--- 2.3 76.0 W--- 67.8----
2024-06-20 10:56 am--- 2.6 136.1 SW--- 67.6----
2024-06-20 10:26 am--- 2.3 155.9 SW--- 67.5----
2024-06-20 09:56 am--- 2.3 156.0 SW--- 67.3----
2024-06-20 09:26 am--- 2.3 136.0 SW--- 67.3----
2024-06-20 08:56 am--- 2.3 155.8 SW--- 67.3----
2024-06-20 08:26 am--- 2.3 136.3 SW--- 67.1----
2024-06-20 07:56 am--- 2.0 156.1 SW--- 67.1----
2024-06-20 07:26 am--- 2.3 146.6 SW--- 66.9----
2024-06-20 06:56 am--- 2.0 136.6 SW--- 66.9----
2024-06-20 06:26 am--- 2.0 146.3 SW--- 67.1----
2024-06-20 05:56 am--- 2.0 136.4 SW--- 67.1----
2024-06-20 05:26 am--- 2.0 156.5 SW--- 67.6----
2024-06-20 04:56 am--- 2.0 156.5 SW--- 67.8----

Detailed Wave Summary
for 46274 as of (5:26 am PDT)
1226 GMT on 06/21/2024:

These wave data are displayed in rounded times.

     

Click on the graph icon in the table below to see a time series plot of the last five days of that observation.

5-day plot - Significant Wave Height Significant Wave Height (WVHT): 2.6 ft
5-day plot - Swell Height Swell Height (SwH): 1.0 ft
5-day plot - Swell Period Swell Period (SwP): 14.3 sec
5-day plot - Swell Direction Swell Direction (SwD): SW
5-day plot - Wind Wave Height Wind Wave Height (WWH): 2.6 ft
5-day plot - Wind Wave Period Wind Wave Period (WWP): 7.1 sec
5-day plot - Wind Wave Direction Wind Wave Direction (WWD): W
5-day plot - Wave Steepness Wave Steepness (STEEPNESS): AVERAGE
5-day plot - Average Wave Period Average Wave Period (APD): 5.7 sec
Previous observations
TIME
(PDT)
5-day plot - Wave Height
WVHT
ft
5-day plot - Swell Height
SwH
ft
5-day plot - Swell Period
SwP
sec
5-day plot - Swell Direction
SwD
 
5-day plot - Wind Wave Height
WWH
ft
5-day plot - Wind Wave Period
WWP
sec
5-day plot - Wind Wave Direction
WWD
 
5-day plot - Wave Steepness
STEEPNESS
 
5-day plot - Average Wave Period
APD
sec
2024-06-21 04:56 am 2.6 1.0 13.3 SW 2.6 6.7 W AVERAGE 5.5
2024-06-21 04:26 am 2.6 1.0 14.3 SW 2.6 7.1 W AVERAGE 5.6
2024-06-21 03:56 am 2.6 1.0 13.3 SW 2.6 7.1 W AVERAGE 5.4
2024-06-21 03:26 am 3.0 1.0 14.3 SW 2.6 7.1 W AVERAGE 5.5
2024-06-21 02:56 am 3.0 1.0 12.5 SW 2.6 5.3 W STEEP 5.5
2024-06-21 02:26 am 3.0 1.0 13.3 SW 2.6 7.1 W AVERAGE 5.4
2024-06-21 01:56 am 3.0 1.0 11.8WSW 2.6 5.6 W STEEP 5.4
2024-06-21 01:26 am 3.0 1.0 12.5 SW 2.6 5.3 W STEEP 5.2
2024-06-21 12:56 am 3.0 1.0 15.4 SW 2.6 6.7 W AVERAGE 5.3
2024-06-21 12:26 am 2.6 1.0 12.5 SW 2.6 5.0 W AVERAGE 5.2
2024-06-20 11:56 pm 2.6 1.0 14.3 SW 2.6 4.8 WVERY_STEEP 5.2
2024-06-20 11:26 pm 2.6 1.0 15.4 SW 2.3 6.2 W N/A 5.2
2024-06-20 10:56 pm 2.6 1.0 13.3 SW 2.3 5.9 W N/A 5.3
2024-06-20 10:26 pm 2.6 1.0 12.5 SW 2.3 6.7 W AVERAGE 5.3
2024-06-20 09:56 pm 2.6 1.3 12.5 SW 2.3 4.8 W N/A 5.3
2024-06-20 09:26 pm 2.3 1.0 13.3 SW 2.3 5.6 W N/A 4.9
2024-06-20 08:56 pm 2.6 1.3 15.4 SW 2.3 5.6 W N/A 5.1
2024-06-20 08:26 pm 2.6 1.3 13.3SSW 2.3 6.7 W N/A 5.5
2024-06-20 07:56 pm 2.3 1.0 15.4 SW 2.3 7.1 W N/A 5.4
2024-06-20 07:26 pm 2.6 1.3 13.3 SW 2.3 6.7 W N/A 5.5
2024-06-20 06:56 pm 2.3 1.0 15.4 SW 2.0 5.9 W N/A 5.1
2024-06-20 06:26 pm 2.6 1.3 15.4SSW 2.3 6.7 W N/A 5.4
2024-06-20 05:56 pm 2.6 1.3 15.4 SW 2.3 6.7 W N/A 5.4
2024-06-20 05:26 pm 2.3 1.0 15.4 SW 2.3 7.1 W N/A 5.3
2024-06-20 04:56 pm 2.6 1.0 15.4 SW 2.3 7.1 W N/A 5.4
2024-06-20 04:26 pm 2.3 1.0 13.3 SW 2.3 6.2 W N/A 5.5
2024-06-20 03:56 pm 2.3 1.3 15.4 SW 2.0 6.7 W N/A 5.6
2024-06-20 03:26 pm 2.3 1.0 13.3 SW 2.0 5.3 W N/A 5.4
2024-06-20 02:56 pm 2.3 1.0 15.4 SW 2.0 6.7 W N/A 5.6
2024-06-20 02:26 pm 2.3 1.0 13.3 SW 2.0 6.2 W N/A 5.7
2024-06-20 01:56 pm 2.3 1.0 12.5 SW 2.0 6.7 W N/A 5.7
2024-06-20 01:26 pm 2.3 1.3 13.3 SW 2.0 5.6 W N/A 6.0
2024-06-20 12:56 pm 2.3 1.0 15.4 SW 2.3 6.2 W N/A 6.0
2024-06-20 12:26 pm 2.6 1.0 15.4 SW 2.3 6.2 W N/A 5.8
2024-06-20 11:56 am 2.6 1.3 13.3 SW 2.3 7.1 W N/A 6.2
2024-06-20 11:26 am 2.3 1.0 13.3 SW 2.0 7.1 W N/A 6.0
2024-06-20 10:56 am 2.6 1.3 13.3 SW 2.3 7.1 W N/A 6.1
2024-06-20 10:26 am 2.3 1.3 15.4 SW 2.0 6.2 WNW N/A 5.9
2024-06-20 09:56 am 2.3 1.3 15.4 SW 2.0 7.1 W N/A 6.0
2024-06-20 09:26 am 2.3 1.3 13.3 SW 2.0 6.7 W N/A 6.0
2024-06-20 08:56 am 2.3 1.0 15.4 SW 2.0 6.2 W N/A 5.8
2024-06-20 08:26 am 2.3 1.3 13.3 SW 2.0 6.2 W N/A 6.3
2024-06-20 07:56 am 2.0 1.3 15.4 SW 1.6 7.7 W N/A 6.1
2024-06-20 07:26 am 2.3 1.3 14.3 SW 1.6 5.9 W N/A 6.6
2024-06-20 06:56 am 2.0 1.3 13.3 SW 1.6 6.7 W N/A 6.6
2024-06-20 06:26 am 2.0 1.3 14.3 SW 1.6 7.1 W N/A 6.3
2024-06-20 05:56 am 2.0 1.3 13.3 SW 1.6 5.3 W N/A 6.4
2024-06-20 05:26 am 2.0 1.3 15.4 SW 1.6 5.9 W N/A 6.5
2024-06-20 04:56 am 2.0 1.0 15.4 SW 1.6 6.7 W N/A 6.5

Plot of wave energy versus frequency (and period)